Estació municipal de Vilalleons (Osona, E.N.Guilleries-Savassona)

Consulta les dades en temps real de l'estació municipal de Vilalleons





Hora UTC 04:00
Temperatura 6.0 ºC
Humitat 96.0 %
Pressió 1011.3 hPa
Pluja 0.2 mm
Velocitat vent 0.0 km/h
Direcció vent SE

Webcam

Dades diàries 2026-05-05



Hora UTC (hivern +1h; estiu +2h)
Temperatura (ºC) Humitat (%) Pressió (hPa) Velocitat vent (km/h) Precipitació (mm)
Hora UTC Aire Humitat Pressió Vel. Dir. Vel. Max Dir. Intent. màx 5 min.
00:05 7.7 94.0 1011.7 1.6 SE 1.6 0.0
00:10 7.6 94.0 1011.8 0.0 SE 3.2 0.2
00:15 7.6 94.0 1011.7 0.0 SE 3.2 0.0
00:20 7.6 95.0 1011.8 0.0 SE 3.2 0.0
00:25 7.4 94.0 1011.8 0.0 SE 0.0 0.0
00:30 7.4 94.0 1011.7 0.0 SE 0.0 0.0
00:35 7.4 94.0 1011.8 0.0 SE 0.0 0.0
00:40 7.3 94.0 1011.8 0.0 SE 0.0 0.0
00:45 7.2 94.0 1011.7 0.0 SE 0.0 0.0
00:50 7.1 94.0 1011.6 0.0 SE 0.0 0.0
00:55 7.0 94.0 1011.6 0.0 SE 0.0 0.0
01:00 6.9 94.0 1011.7 3.2 SE 4.8 0.0
01:05 6.9 95.0 1011.7 1.6 SE 4.8 0.0
01:10 6.9 95.0 1011.7 1.6 SE 4.8 0.0
01:15 6.8 95.0 1011.5 3.2 SE 4.8 0.0
01:20 6.9 95.0 1011.6 0.0 SE 4.8 0.0
01:25 6.9 95.0 1011.6 1.6 SE 4.8 0.0
01:30 6.8 95.0 1011.5 1.6 SE 4.8 0.0
01:35 6.8 95.0 1011.7 0.0 SE 4.8 0.0
01:40 6.9 95.0 1011.6 0.0 SE 3.2 0.0
01:45 6.8 95.0 1011.5 3.2 SE 3.2 0.0
01:50 6.8 95.0 1011.4 0.0 SE 3.2 0.0
01:55 6.8 96.0 1011.5 0.0 SE 3.2 0.0
02:00 6.8 96.0 1011.5 3.2 SE 3.2 0.0
02:05 6.7 96.0 1011.6 3.2 SE 3.2 0.0
02:10 6.7 95.0 1011.5 0.0 SE 3.2 0.0
02:15 6.7 95.0 1011.6 1.6 SE 3.2 0.0
02:20 6.7 95.0 1011.5 0.0 SE 3.2 0.0
02:25 6.6 95.0 1011.4 1.6 SE 3.2 0.0
02:30 6.6 96.0 1011.6 3.2 SE 3.2 0.0
02:35 6.6 95.0 1011.5 0.0 SE 4.8 0.0
02:40 6.5 96.0 1011.5 0.0 SE 4.8 0.0
02:45 6.6 96.0 1011.4 1.6 SE 3.2 0.0
02:50 6.6 96.0 1011.5 0.0 SE 1.6 0.0
02:55 6.7 96.0 1011.6 0.0 SE 0.0 0.0
03:00 6.6 96.0 1011.6 0.0 SE 0.0 0.0
03:05 6.6 96.0 1011.6 3.2 SE 4.8 0.0
03:10 6.4 96.0 1011.3 0.0 SE 4.8 0.0
03:15 6.3 96.0 1011.4 0.0 SE 3.2 0.0
03:20 6.3 96.0 1011.5 1.6 SE 3.2 0.0
03:25 6.3 96.0 1011.4 3.2 SE 3.2 0.0
03:30 6.3 96.0 1011.4 3.2 SE 3.2 0.0
03:35 6.2 96.0 1011.4 0.0 SE 3.2 0.0
03:40 6.1 96.0 1011.4 1.6 SE 3.2 0.0
03:45 6.1 96.0 1011.3 0.0 SE 3.2 0.0
03:50 6.1 96.0 1011.2 0.0 SE 3.2 0.0
03:55 6.0 96.0 1011.3 3.2 SE 3.2 0.0
04:00 6.0 96.0 1011.3 0.0 SE 3.2 0.0
Màxima 7.7 96.0 1011.8 3.2 SE 4.8 0.2
Mínima 6.0 94.0 1011.2
Total 0.2